^^
Your Local Weather - Clay, NY Station Historical Data
Daily Summary for December 26, 2017 Units:  English    Metric   Both
« Previous Day
Next Day »
Daily Weekly Monthly Yearly Custom
  High: Low: Average:
Temperature: 19.4 °F 7.4 °F 14.3 °F
Dew Point: 8.5 °F -4.7 °F -2 °F
Humidity: 62% 37% 48%
Wind Speed: 10.0mph 1.0mph 5.9mph
Wind Gust: 19.0mph - -
Wind- - WSW
Pressure: 30.43 in 30.10 in -
Precipitation: 0.00 in    
Historical Graphs
 
 
Tabular Data for December 26, 2017
Time Temperature Dew Point Pressure Wind Wind Speed Wind Gust Humidity Rainfall Rate (Hourly) solar
00:02 19.4 °F 8.5 °F 30.10 in SW 6.0 mph 10.0 mph 62% 0.00 in 0 W/m2
00:08 19.3 °F 8.4 °F 30.11 in South 6.0 mph 13.0 mph 62% 0.00 in 0 W/m2
00:14 19.2 °F 7.9 °F 30.10 in WSW 6.0 mph 8.0 mph 61% 0.00 in 0 W/m2
00:20 19.2 °F 7.9 °F 30.11 in West 6.0 mph 6.0 mph 61% 0.00 in 0 W/m2
00:26 19.1 °F 7.8 °F 30.11 in WNW 6.0 mph 10.0 mph 61% 0.00 in 0 W/m2
00:32 19.1 °F 7.5 °F 30.11 in WNW 6.0 mph 10.0 mph 60% 0.00 in 0 W/m2
00:38 18.8 °F 7.2 °F 30.11 in WSW 5.0 mph 10.0 mph 60% 0.00 in 0 W/m2
00:46 18.8 °F 6.8 °F 30.12 in SW 6.0 mph 11.0 mph 59% 0.00 in 0 W/m2
00:52 18.7 °F 6.7 °F 30.12 in WSW 6.0 mph 6.0 mph 59% 0.00 in 0 W/m2
01:00 18.6 °F 5.9 °F 30.13 in SW 6.0 mph 6.0 mph 57% 0.00 in 0 W/m2
01:06 18.5 °F 5.4 °F 30.13 in West 7.0 mph 8.0 mph 56% 0.00 in 0 W/m2
01:14 18.5 °F 4.2 °F 30.14 in WSW 6.0 mph 10.0 mph 53% 0.00 in 0 W/m2
01:20 18.3 °F 3.2 °F 30.14 in WSW 6.0 mph 10.0 mph 51% 0.00 in 0 W/m2
01:26 18.2 °F 2.6 °F 30.14 in West 6.0 mph 10.0 mph 50% 0.00 in 0 W/m2
01:32 18.2 °F 1.8 °F 30.14 in WNW 6.0 mph 6.0 mph 48% 0.00 in 0 W/m2
01:38 18.2 °F 1.3 °F 30.15 in SW 7.0 mph 10.0 mph 47% 0.00 in 0 W/m2
01:44 18.2 °F 0.9 °F 30.15 in West 8.0 mph 11.0 mph 46% 0.00 in 0 W/m2
01:50 17.9 °F 1.0 °F 30.16 in SW 7.0 mph 11.0 mph 47% 0.00 in 0 W/m2
01:56 17.9 °F 1.0 °F 30.17 in West 7.0 mph 16.0 mph 47% 0.00 in 0 W/m2
02:02 17.7 °F 0.4 °F 30.17 in SW 6.0 mph 9.0 mph 46% 0.00 in 0 W/m2
02:08 17.7 °F -0.1 °F 30.17 in WSW 7.0 mph 13.0 mph 45% 0.00 in 0 W/m2
02:14 17.5 °F -0.3 °F 30.17 in West 8.0 mph 10.0 mph 45% 0.00 in 0 W/m2
02:20 17.4 °F -0.4 °F 30.19 in WNW 8.0 mph 8.0 mph 45% 0.00 in 0 W/m2
02:26 17.3 °F -0.9 °F 30.19 in SW 7.0 mph 12.0 mph 44% 0.00 in 0 W/m2
02:32 17.2 °F -0.5 °F 30.19 in SW 7.0 mph 19.0 mph 45% 0.00 in 0 W/m2
02:38 17.0 °F -0.3 °F 30.19 in WSW 8.0 mph 19.0 mph 46% 0.00 in 0 W/m2
02:44 16.9 °F -0.3 °F 30.20 in South 6.0 mph 7.0 mph 46% 0.00 in 0 W/m2
02:50 16.8 °F 0.0 °F 30.20 in WSW 6.0 mph 6.0 mph 47% 0.00 in 0 W/m2
02:56 16.6 °F -0.6 °F 30.20 in West 7.0 mph 13.0 mph 46% 0.00 in 0 W/m2
03:02 16.4 °F -0.3 °F 30.20 in SSW 7.0 mph 12.0 mph 47% 0.00 in 0 W/m2
03:10 16.1 °F -0.6 °F 30.20 in SW 7.0 mph 7.0 mph 47% 0.00 in 0 W/m2
03:12 16.0 °F -0.7 °F 30.20 in West 7.0 mph 7.0 mph 47% 0.00 in 0 W/m2
03:18 15.9 °F -0.4 °F 30.20 in NW 8.0 mph 9.0 mph 48% 0.00 in 0 W/m2
03:24 15.8 °F -1.4 °F 30.20 in WSW 7.0 mph 11.0 mph 46% 0.00 in 0 W/m2
03:26 15.9 °F -1.7 °F 30.20 in West 7.0 mph 12.0 mph 45% 0.00 in 0 W/m2
03:32 15.9 °F -2.2 °F 30.21 in WSW 8.0 mph 9.0 mph 44% 0.00 in 0 W/m2
03:38 15.8 °F -1.8 °F 30.20 in West 7.0 mph 9.0 mph 45% 0.00 in 0 W/m2
03:44 15.5 °F -1.6 °F 30.21 in SW 6.0 mph 16.0 mph 46% 0.00 in 0 W/m2
03:50 15.4 °F -2.2 °F 30.21 in WSW 7.0 mph 8.0 mph 45% 0.00 in 0 W/m2
03:52 15.4 °F -1.7 °F 30.21 in WSW 7.0 mph 8.0 mph 46% 0.00 in 0 W/m2
03:58 15.1 °F -2.0 °F 30.21 in NW 7.0 mph 8.0 mph 46% 0.00 in 0 W/m2
04:04 15.0 °F -2.1 °F 30.21 in SSW 6.0 mph 9.0 mph 46% 0.00 in 0 W/m2
04:10 14.8 °F -1.8 °F 30.22 in SSW 5.0 mph 9.0 mph 47% 0.00 in 0 W/m2
04:16 14.6 °F -2.5 °F 30.22 in WSW 6.0 mph 9.0 mph 46% 0.00 in 0 W/m2
04:22 14.7 °F -2.4 °F 30.22 in WNW 8.0 mph 8.0 mph 46% 0.00 in 0 W/m2
04:28 14.5 °F -2.6 °F 30.22 in West 8.0 mph 8.0 mph 46% 0.00 in 0 W/m2
04:34 14.5 °F -3.0 °F 30.22 in West 7.0 mph 16.0 mph 45% 0.00 in 0 W/m2
04:40 14.4 °F -3.1 °F 30.22 in SW 8.0 mph 8.0 mph 45% 0.00 in 0 W/m2
04:46 14.3 °F -3.2 °F 30.22 in WNW 8.0 mph 13.0 mph 45% 0.00 in 0 W/m2
04:52 14.3 °F -3.2 °F 30.22 in SW 7.0 mph 10.0 mph 45% 0.00 in 0 W/m2
04:58 14.1 °F -2.9 °F 30.22 in SW 7.0 mph 10.0 mph 46% 0.00 in 0 W/m2
05:04 13.9 °F -3.1 °F 30.22 in WNW 5.0 mph 6.0 mph 46% 0.00 in 0 W/m2
05:10 14.0 °F -3.5 °F 30.22 in WNW 6.0 mph 6.0 mph 45% 0.00 in 0 W/m2
05:16 14.0 °F -3.0 °F 30.22 in West 6.0 mph 11.0 mph 46% 0.00 in 0 W/m2
05:24 13.9 °F -2.7 °F 30.22 in West 6.0 mph 6.0 mph 47% 0.00 in 0 W/m2
05:30 13.8 °F -3.2 °F 30.22 in WSW 6.0 mph 6.0 mph 46% 0.00 in 0 W/m2
05:36 13.8 °F -3.2 °F 30.22 in WSW 7.0 mph 9.0 mph 46% 0.00 in 0 W/m2
05:42 13.6 °F -3.4 °F 30.22 in WSW 7.0 mph 9.0 mph 46% 0.00 in 0 W/m2
05:48 13.5 °F -3.0 °F 30.22 in West 6.0 mph 12.0 mph 47% 0.00 in 0 W/m2
05:54 13.5 °F -3.0 °F 30.23 in WSW 7.0 mph 14.0 mph 47% 0.00 in 0 W/m2
05:56 13.4 °F -3.1 °F 30.23 in West 8.0 mph 14.0 mph 47% 0.00 in 0 W/m2
06:02 13.3 °F -3.2 °F 30.24 in West 8.0 mph 8.0 mph 47% 0.00 in 0 W/m2
06:08 13.2 °F -2.9 °F 30.24 in WSW 8.0 mph 8.0 mph 48% 0.00 in 0 W/m2
06:14 13.0 °F -3.0 °F 30.24 in WSW 6.0 mph 13.0 mph 48% 0.00 in 0 W/m2
06:20 12.9 °F -3.1 °F 30.24 in WSW 5.0 mph 5.0 mph 48% 0.00 in 0 W/m2
06:26 12.9 °F -3.1 °F 30.24 in WSW 6.0 mph 8.0 mph 48% 0.00 in 0 W/m2
06:32 12.8 °F -3.2 °F 30.24 in SW 7.0 mph 7.0 mph 48% 0.00 in 0 W/m2
06:38 12.7 °F -2.9 °F 30.25 in WSW 7.0 mph 11.0 mph 49% 0.00 in 0 W/m2
06:44 12.6 °F -2.6 °F 30.25 in SSE 6.0 mph 8.0 mph 50% 0.00 in 0 W/m2
06:50 12.6 °F -3.0 °F 30.25 in WSW 5.0 mph 5.0 mph 49% 0.00 in 0 W/m2
06:56 12.5 °F -2.6 °F 30.25 in WSW 6.0 mph 6.0 mph 50% 0.00 in 0 W/m2
07:04 12.5 °F -2.6 °F 30.25 in SW 7.0 mph 9.0 mph 50% 0.00 in 0 W/m2
07:10 12.4 °F -2.3 °F 30.25 in WSW 6.0 mph 6.0 mph 51% 0.00 in 0 W/m2
07:16 12.3 °F -2.0 °F 30.25 in West 7.0 mph 11.0 mph 52% 0.00 in 0 W/m2
07:22 12.1 °F -2.2 °F 30.25 in WSW 7.0 mph 7.0 mph 52% 0.00 in 0 W/m2
07:28 12.1 °F -2.2 °F 30.26 in SW 6.0 mph 8.0 mph 52% 0.00 in 0 W/m2
07:30 12.1 °F -2.2 °F 30.26 in WSW 6.0 mph 6.0 mph 52% 0.00 in 0 W/m2
07:36 12.0 °F -2.3 °F 30.26 in WSW 5.0 mph 11.0 mph 52% 0.00 in 5 W/m2
07:42 11.9 °F -2.4 °F 30.26 in WSW 6.0 mph 7.0 mph 52% 0.00 in 9 W/m2
07:48 12.0 °F -2.7 °F 30.27 in SW 6.0 mph 8.0 mph 51% 0.00 in 11 W/m2
07:54 12.1 °F -2.6 °F 30.27 in SW 7.0 mph 10.0 mph 51% 0.00 in 12 W/m2
07:56 12.1 °F -2.6 °F 30.27 in WSW 8.0 mph 10.0 mph 51% 0.00 in 12 W/m2
08:02 12.2 °F -2.9 °F 30.27 in SSW 9.0 mph 9.0 mph 50% 0.00 in 16 W/m2
08:04 12.1 °F -3.0 °F 30.27 in SW 8.0 mph 9.0 mph 50% 0.00 in 18 W/m2
08:10 12.1 °F -3.0 °F 30.28 in WSW 7.0 mph 7.0 mph 50% 0.00 in 19 W/m2
08:16 12.3 °F -3.3 °F 30.28 in West 7.0 mph 11.0 mph 49% 0.00 in 21 W/m2
08:22 12.4 °F -3.2 °F 30.28 in WNW 8.0 mph 8.0 mph 49% 0.00 in 25 W/m2
08:30 12.6 °F -3.0 °F 30.28 in WSW 7.0 mph 7.0 mph 49% 0.00 in 127 W/m2
08:38 13.0 °F -3.0 °F 30.29 in West 8.0 mph 12.0 mph 48% 0.00 in 158 W/m2
08:44 13.2 °F -2.9 °F 30.29 in SW 8.0 mph 8.0 mph 48% 0.00 in 172 W/m2
08:50 13.4 °F -2.7 °F 30.29 in West 7.0 mph 9.0 mph 48% 0.00 in 186 W/m2
08:56 13.6 °F -2.9 °F 30.30 in NNW 9.0 mph 13.0 mph 47% 0.00 in 202 W/m2
09:04 13.9 °F -2.7 °F 30.30 in West 7.0 mph 8.0 mph 47% 0.00 in 220 W/m2
09:10 14.0 °F -3.0 °F 30.30 in West 6.0 mph 6.0 mph 46% 0.00 in 234 W/m2
09:16 14.2 °F -2.4 °F 30.30 in WSW 6.0 mph 10.0 mph 47% 0.00 in 246 W/m2
09:22 14.2 °F -2.8 °F 30.30 in West 7.0 mph 9.0 mph 46% 0.00 in 260 W/m2
09:28 14.3 °F -2.7 °F 30.30 in West 8.0 mph 17.0 mph 46% 0.00 in 272 W/m2
09:34 14.7 °F -2.4 °F 30.31 in SSW 7.0 mph 8.0 mph 46% 0.00 in 285 W/m2
09:40 14.7 °F -2.4 °F 30.31 in West 7.0 mph 7.0 mph 46% 0.00 in 295 W/m2
09:46 15.0 °F -2.6 °F 30.31 in West 7.0 mph 9.0 mph 45% 0.00 in 306 W/m2
09:52 15.2 °F -2.4 °F 30.32 in West 7.0 mph 8.0 mph 45% 0.00 in 318 W/m2
09:58 15.3 °F -2.8 °F 30.32 in West 7.0 mph 14.0 mph 44% 0.00 in 329 W/m2
10:04 15.4 °F -3.1 °F 30.32 in WSW 8.0 mph 9.0 mph 43% 0.00 in 339 W/m2
10:10 15.8 °F -3.3 °F 30.32 in South 7.0 mph 8.0 mph 42% 0.00 in 350 W/m2
10:16 16.1 °F -3.0 °F 30.32 in West 6.0 mph 8.0 mph 42% 0.00 in 359 W/m2
10:22 15.8 °F -3.3 °F 30.33 in West 8.0 mph 13.0 mph 42% 0.00 in 367 W/m2
10:28 16.1 °F -3.5 °F 30.33 in West 8.0 mph 13.0 mph 41% 0.00 in 376 W/m2
10:32 16.1 °F -4.0 °F 30.33 in West 7.0 mph 8.0 mph 40% 0.00 in 383 W/m2
10:38 15.9 °F -4.7 °F 30.33 in West 8.0 mph 15.0 mph 39% 0.00 in 390 W/m2
10:44 16.2 °F -3.9 °F 30.33 in NW 9.0 mph 10.0 mph 40% 0.00 in 396 W/m2
10:50 16.4 °F -3.2 °F 30.33 in SW 8.0 mph 8.0 mph 41% 0.00 in 403 W/m2
10:56 16.4 °F -4.3 °F 30.33 in West 8.0 mph 17.0 mph 39% 0.00 in 410 W/m2
11:02 16.3 °F -4.4 °F 30.33 in West 9.0 mph 9.0 mph 39% 0.00 in 415 W/m2
11:08 16.5 °F -4.2 °F 30.32 in WNW 8.0 mph 9.0 mph 39% 0.00 in 420 W/m2
11:14 16.5 °F -4.2 °F 30.32 in West 8.0 mph 12.0 mph 39% 0.00 in 425 W/m2
11:20 16.6 °F -3.1 °F 30.33 in WNW 8.0 mph 8.0 mph 41% 0.00 in 429 W/m2
11:26 16.5 °F -4.2 °F 30.32 in WSW 8.0 mph 9.0 mph 39% 0.00 in 432 W/m2
11:32 16.9 °F -3.8 °F 30.32 in WSW 7.0 mph 12.0 mph 39% 0.00 in 436 W/m2
11:38 17.3 °F -2.9 °F 30.32 in West 7.0 mph 12.0 mph 40% 0.00 in 438 W/m2
11:48 16.8 °F -2.9 °F 30.32 in WNW 10.0 mph 19.0 mph 41% 0.00 in 439 W/m2
11:54 16.9 °F -2.8 °F 30.32 in WNW 10.0 mph 18.0 mph 41% 0.00 in 441 W/m2
12:00 17.5 °F -2.8 °F 30.32 in WNW 8.0 mph 9.0 mph 40% 0.00 in 439 W/m2
12:12 17.7 °F -2.6 °F 30.32 in WNW 7.0 mph 8.0 mph 40% 0.00 in 443 W/m2
12:16 17.6 °F -2.7 °F 30.31 in NW 7.0 mph 9.0 mph 40% 0.00 in 445 W/m2
12:22 18.3 °F -1.0 °F 30.31 in WSW 6.0 mph 11.0 mph 42% 0.00 in 439 W/m2
12:28 18.0 °F -1.8 °F 30.31 in WSW 6.0 mph 11.0 mph 41% 0.00 in 439 W/m2
12:36 18.0 °F -1.8 °F 30.32 in West 6.0 mph 11.0 mph 41% 0.00 in 436 W/m2
12:42 18.2 °F -1.1 °F 30.31 in West 6.0 mph 12.0 mph 42% 0.00 in 434 W/m2
12:48 18.2 °F -1.1 °F 30.31 in SW 6.0 mph 12.0 mph 42% 0.00 in 432 W/m2
12:54 17.8 °F -2.0 °F 30.31 in West 7.0 mph 15.0 mph 41% 0.00 in 425 W/m2
13:00 17.9 °F -1.4 °F 30.31 in WNW 8.0 mph 11.0 mph 42% 0.00 in 422 W/m2
13:08 17.6 °F -2.1 °F 30.31 in WSW 8.0 mph 13.0 mph 41% 0.00 in 415 W/m2
13:14 17.7 °F -1.0 °F 30.32 in West 8.0 mph 9.0 mph 43% 0.00 in 410 W/m2
13:20 17.8 °F -1.0 °F 30.31 in WSW 8.0 mph 8.0 mph 43% 0.00 in 404 W/m2
13:26 17.9 °F -0.9 °F 30.31 in WSW 7.0 mph 10.0 mph 43% 0.00 in 397 W/m2
13:32 18.3 °F -0.5 °F 30.31 in WSW 6.0 mph 7.0 mph 43% 0.00 in 390 W/m2
13:38 18.1 °F -0.7 °F 30.31 in SW 6.0 mph 11.0 mph 43% 0.00 in 381 W/m2
13:44 17.9 °F -1.4 °F 30.31 in SW 8.0 mph 10.0 mph 42% 0.00 in 378 W/m2
13:50 17.9 °F -0.9 °F 30.32 in West 8.0 mph 8.0 mph 43% 0.00 in 369 W/m2
13:52 17.9 °F -1.4 °F 30.31 in WSW 8.0 mph 11.0 mph 42% 0.00 in 373 W/m2
13:58 18.4 °F -0.4 °F 30.32 in WNW 6.0 mph 11.0 mph 43% 0.00 in 359 W/m2
14:04 17.9 °F -0.9 °F 30.32 in West 7.0 mph 14.0 mph 43% 0.00 in 367 W/m2
14:10 18.1 °F -0.2 °F 30.32 in WSW 7.0 mph 7.0 mph 44% 0.00 in 369 W/m2
14:16 18.7 °F -0.6 °F 30.32 in West 5.0 mph 8.0 mph 42% 0.00 in 373 W/m2
14:22 18.5 °F -3.5 °F 30.32 in West 5.0 mph 8.0 mph 37% 0.00 in 346 W/m2
14:28 18.1 °F -2.7 °F 30.32 in WNW 7.0 mph 11.0 mph 39% 0.00 in 244 W/m2
14:34 17.9 °F -2.9 °F 30.32 in NW 7.0 mph 7.0 mph 39% 0.00 in 214 W/m2
14:40 17.7 °F -3.1 °F 30.33 in WSW 6.0 mph 10.0 mph 39% 0.00 in 163 W/m2
14:48 17.0 °F -4.3 °F 30.33 in West 6.0 mph 16.0 mph 38% 0.00 in 139 W/m2
14:54 16.9 °F -4.4 °F 30.33 in WNW 7.0 mph 8.0 mph 38% 0.00 in 251 W/m2
15:00 17.3 °F -4.0 °F 30.33 in West 6.0 mph 8.0 mph 38% 0.00 in 199 W/m2
15:06 17.4 °F -3.4 °F 30.33 in West 5.0 mph 8.0 mph 39% 0.00 in 234 W/m2
15:10 17.4 °F -3.4 °F 30.34 in WSW 6.0 mph 6.0 mph 39% 0.00 in 221 W/m2
15:16 17.3 °F -4.0 °F 30.33 in WNW 6.0 mph 10.0 mph 38% 0.00 in 214 W/m2
15:22 17.0 °F -4.3 °F 30.33 in WNW 6.0 mph 10.0 mph 38% 0.00 in 193 W/m2
15:28 17.0 °F -3.7 °F 30.34 in WSW 6.0 mph 10.0 mph 39% 0.00 in 174 W/m2
15:34 17.0 °F -3.7 °F 30.34 in WNW 5.0 mph 5.0 mph 39% 0.00 in 149 W/m2
15:40 16.7 °F -4.0 °F 30.34 in West 6.0 mph 6.0 mph 39% 0.00 in 137 W/m2
15:46 16.6 °F -3.1 °F 30.35 in West 7.0 mph 7.0 mph 41% 0.00 in 111 W/m2
15:54 16.3 °F -3.3 °F 30.35 in WSW 5.0 mph 6.0 mph 41% 0.00 in 33 W/m2
16:00 15.9 °F -3.2 °F 30.35 in West 6.0 mph 6.0 mph 42% 0.00 in 21 W/m2
16:06 15.6 °F -2.5 °F 30.35 in WSW 4.0 mph 6.0 mph 44% 0.00 in 21 W/m2
16:12 15.4 °F -3.1 °F 30.36 in West 4.0 mph 4.0 mph 43% 0.00 in 16 W/m2
16:14 15.4 °F -2.7 °F 30.36 in West 4.0 mph 5.0 mph 44% 0.00 in 12 W/m2
16:20 15.1 °F -2.9 °F 30.36 in West 3.0 mph 3.0 mph 44% 0.00 in 12 W/m2
16:26 15.0 °F -3.5 °F 30.36 in NW 3.0 mph 8.0 mph 43% 0.00 in 12 W/m2
16:32 14.9 °F -3.1 °F 30.36 in WNW 5.0 mph 11.0 mph 44% 0.00 in 7 W/m2
16:38 14.9 °F -2.2 °F 30.37 in WSW 5.0 mph 13.0 mph 46% 0.00 in 5 W/m2
16:44 14.8 °F -2.3 °F 30.37 in SW 5.0 mph 8.0 mph 46% 0.00 in 0 W/m2
16:50 14.7 °F -1.9 °F 30.37 in WSW 6.0 mph 6.0 mph 47% 0.00 in 0 W/m2
16:56 14.5 °F -2.1 °F 30.37 in SW 5.0 mph 10.0 mph 47% 0.00 in 0 W/m2
17:02 14.5 °F -1.7 °F 30.38 in WSW 7.0 mph 7.0 mph 48% 0.00 in 0 W/m2
17:08 14.4 °F -1.7 °F 30.38 in West 6.0 mph 9.0 mph 48% 0.00 in 0 W/m2
17:14 14.3 °F -2.3 °F 30.38 in SW 6.0 mph 8.0 mph 47% 0.00 in 0 W/m2
17:20 14.2 °F -1.9 °F 30.38 in West 6.0 mph 7.0 mph 48% 0.00 in 0 W/m2
17:26 14.0 °F -2.6 °F 30.38 in West 5.0 mph 10.0 mph 47% 0.00 in 0 W/m2
17:30 13.9 °F -2.7 °F 30.38 in West 5.0 mph 5.0 mph 47% 0.00 in 0 W/m2
17:36 13.8 °F -2.7 °F 30.38 in WSW 4.0 mph 5.0 mph 47% 0.00 in 0 W/m2
17:42 13.7 °F -2.4 °F 30.38 in West 4.0 mph 4.0 mph 48% 0.00 in 0 W/m2
17:48 13.6 °F -2.1 °F 30.38 in West 3.0 mph 4.0 mph 49% 0.00 in 0 W/m2
17:54 13.3 °F -2.3 °F 30.38 in WSW 2.0 mph 3.0 mph 49% 0.00 in 0 W/m2
18:00 13.0 °F -2.6 °F 30.38 in WNW 3.0 mph 3.0 mph 49% 0.00 in 0 W/m2
18:06 12.8 °F -2.8 °F 30.38 in West 3.0 mph 5.0 mph 49% 0.00 in 0 W/m2
18:12 12.8 °F -2.8 °F 30.39 in WNW 4.0 mph 5.0 mph 49% 0.00 in 0 W/m2
18:18 12.8 °F -2.4 °F 30.39 in West 5.0 mph 9.0 mph 50% 0.00 in 0 W/m2
18:24 12.7 °F -2.0 °F 30.39 in WSW 5.0 mph 9.0 mph 51% 0.00 in 0 W/m2
18:26 12.6 °F -2.6 °F 30.39 in West 4.0 mph 9.0 mph 50% 0.00 in 0 W/m2
18:32 12.5 °F -2.6 °F 30.40 in WNW 5.0 mph 5.0 mph 50% 0.00 in 0 W/m2
18:38 12.4 °F -2.7 °F 30.40 in West 4.0 mph 11.0 mph 50% 0.00 in 0 W/m2
18:40 12.5 °F -2.6 °F 30.40 in WNW 4.0 mph 4.0 mph 50% 0.00 in 0 W/m2
18:46 12.4 °F -2.7 °F 30.40 in WNW 5.0 mph 5.0 mph 50% 0.00 in 0 W/m2
18:52 12.4 °F -2.7 °F 30.40 in West 5.0 mph 13.0 mph 50% 0.00 in 0 W/m2
18:58 12.2 °F -2.9 °F 30.40 in West 6.0 mph 13.0 mph 50% 0.00 in 0 W/m2
19:04 12.1 °F -2.6 °F 30.40 in SW 6.0 mph 6.0 mph 51% 0.00 in 0 W/m2
19:10 12.0 °F -3.1 °F 30.40 in WSW 5.0 mph 6.0 mph 50% 0.00 in 0 W/m2
19:16 12.0 °F -3.1 °F 30.40 in SW 6.0 mph 10.0 mph 50% 0.00 in 0 W/m2
19:22 12.0 °F -2.7 °F 30.40 in SSW 6.0 mph 6.0 mph 51% 0.00 in 0 W/m2
19:28 11.8 °F -2.5 °F 30.40 in SSW 6.0 mph 8.0 mph 52% 0.00 in 0 W/m2
19:34 11.6 °F -3.1 °F 30.40 in West 6.0 mph 11.0 mph 51% 0.00 in 0 W/m2
19:38 11.6 °F -3.5 °F 30.40 in SW 6.0 mph 11.0 mph 50% 0.00 in 0 W/m2
19:44 11.5 °F -4.0 °F 30.40 in West 6.0 mph 6.0 mph 49% 0.00 in 0 W/m2
19:50 11.5 °F -3.2 °F 30.40 in SSW 5.0 mph 7.0 mph 51% 0.00 in 0 W/m2
19:56 11.3 °F -2.9 °F 30.40 in West 5.0 mph 7.0 mph 52% 0.00 in 0 W/m2
20:02 11.0 °F -2.8 °F 30.40 in WSW 4.0 mph 4.0 mph 53% 0.00 in 0 W/m2
20:08 11.0 °F -2.4 °F 30.40 in West 4.0 mph 6.0 mph 54% 0.00 in 0 W/m2
20:14 10.7 °F -2.3 °F 30.40 in West 4.0 mph 5.0 mph 55% 0.00 in 0 W/m2
20:20 10.7 °F -2.3 °F 30.40 in West 4.0 mph 4.0 mph 55% 0.00 in 0 W/m2
20:24 10.6 °F -2.4 °F 30.40 in WSW 4.0 mph 6.0 mph 55% 0.00 in 0 W/m2
20:30 10.5 °F -2.5 °F 30.40 in West 5.0 mph 5.0 mph 55% 0.00 in 0 W/m2
20:36 10.4 °F -2.6 °F 30.40 in West 5.0 mph 8.0 mph 55% 0.00 in 0 W/m2
20:42 10.3 °F -2.3 °F 30.40 in SW 5.0 mph 8.0 mph 56% 0.00 in 0 W/m2
20:48 10.3 °F -2.3 °F 30.40 in SW 5.0 mph 8.0 mph 56% 0.00 in 0 W/m2
20:54 10.2 °F -2.4 °F 30.40 in SW 5.0 mph 9.0 mph 56% 0.00 in 0 W/m2
21:00 10.1 °F -2.5 °F 30.40 in SW 5.0 mph 5.0 mph 56% 0.00 in 0 W/m2
21:06 10.0 °F -3.0 °F 30.40 in SW 5.0 mph 7.0 mph 55% 0.00 in 0 W/m2
21:12 10.0 °F -3.0 °F 30.40 in SW 4.0 mph 5.0 mph 55% 0.00 in 0 W/m2
21:18 9.9 °F -3.1 °F 30.40 in SW 5.0 mph 6.0 mph 55% 0.00 in 0 W/m2
21:24 9.9 °F -3.1 °F 30.40 in WSW 4.0 mph 8.0 mph 55% 0.00 in 0 W/m2
21:30 9.8 °F -3.5 °F 30.40 in West 4.0 mph 5.0 mph 54% 0.00 in 0 W/m2
21:36 9.7 °F -3.6 °F 30.40 in WSW 4.0 mph 5.0 mph 54% 0.00 in 0 W/m2
21:42 9.7 °F -3.6 °F 30.40 in SW 4.0 mph 6.0 mph 54% 0.00 in 0 W/m2
21:48 9.5 °F -3.8 °F 30.40 in West 3.0 mph 6.0 mph 54% 0.00 in 0 W/m2
21:54 9.5 °F -3.8 °F 30.40 in WSW 3.0 mph 7.0 mph 54% 0.00 in 0 W/m2
22:02 9.4 °F -3.5 °F 30.40 in SW 3.0 mph 6.0 mph 55% 0.00 in 0 W/m2
22:04 9.4 °F -3.5 °F 30.40 in SSW 3.0 mph 9.0 mph 55% 0.00 in 0 W/m2
22:22 9.2 °F -3.3 °F 30.41 in West 2.0 mph 2.0 mph 56% 0.00 in 0 W/m2
22:28 9.2 °F -3.3 °F 30.42 in WSW 3.0 mph 10.0 mph 56% 0.00 in 0 W/m2
22:34 9.1 °F -3.4 °F 30.42 in WNW 4.0 mph 7.0 mph 56% 0.00 in 0 W/m2
22:40 8.8 °F -3.7 °F 30.43 in WNW 3.0 mph 4.0 mph 56% 0.00 in 0 W/m2
22:46 8.6 °F -3.5 °F 30.43 in WNW 2.0 mph 4.0 mph 57% 0.00 in 0 W/m2
22:52 8.4 °F -3.7 °F 30.43 in West 2.0 mph 4.0 mph 57% 0.00 in 0 W/m2
22:58 8.5 °F -3.6 °F 30.43 in NW 3.0 mph 4.0 mph 57% 0.00 in 0 W/m2
23:03 8.4 °F -3.4 °F 30.43 in NW 3.0 mph 3.0 mph 58% 0.00 in 0 W/m2
23:08 8.2 °F -3.6 °F 30.43 in WSW 2.0 mph 3.0 mph 58% 0.00 in 0 W/m2
23:14 8.1 °F -3.6 °F 30.43 in WSW 2.0 mph 2.0 mph 58% 0.00 in 0 W/m2
23:16 8.0 °F -3.4 °F 30.43 in WSW 2.0 mph 2.0 mph 59% 0.00 in 0 W/m2
23:22 7.9 °F -3.5 °F 30.43 in WSW 1.0 mph 6.0 mph 59% 0.00 in 0 W/m2
23:28 7.8 °F -3.6 °F 30.43 in West 2.0 mph 6.0 mph 59% 0.00 in 0 W/m2
23:34 7.7 °F -3.3 °F 30.43 in WNW 1.0 mph 3.0 mph 60% 0.00 in 0 W/m2
23:40 7.7 °F -3.3 °F 30.43 in West 1.0 mph 1.0 mph 60% 0.00 in 0 W/m2
23:46 7.6 °F -3.1 °F 30.43 in West 1.0 mph 1.0 mph 61% 0.00 in 0 W/m2
23:52 7.5 °F -3.2 °F 30.43 in West 1.0 mph 1.0 mph 61% 0.00 in 0 W/m2
23:58 7.4 °F -2.9 °F 30.43 in West 1.0 mph 2.0 mph 62% 0.00 in 0 W/m2
Country Meadow, Clay, NY, USA
Compliments of Weather Underground - 2 mb